Allentown, PA

3:59 PM EST on December 10, 2019 (GMT -0500)
Allentown

Weather History for KXLL - June, 2019

Change the Weather History Date:

Wednesday, June 5, 2019

  Actual Average (WUND) Record (WUND)
Temperature  
Mean Temperature 72 °F -  
Max Temperature 82 °F - - (-1)
Min Temperature 62 °F - - (-1)
Cooling Degree Days 7    
Growing Degree Days 22 (Base 50)    
Moisture  
Dew Point 58 °F    
Average Humidity 62    
Maximum Humidity 83    
Minimum Humidity 48    
Precipitation  
Precipitation 0.00 in - - ()
Sea Level Pressure  
Sea Level Pressure 29.87 in    
Wind  
Wind Speed 6 mph ()    
Max Wind Speed 17 mph    
Max Gust Speed 21 mph    
Visibility 10.0 miles    
Events Rain    
Averages and records for this station are not official NWS values.
T = Trace of Precipitation, MM = Missing Value Source: Averaged Metar Reports

Daily Weather History Graph

Daily Weather History Graph

Search for Another Location

Airport or City:

Astronomy

Jun. 05, 2019 Rise Set
Actual Time 5:32 AM EDT 8:29 PM EDT
Civil Twilight 4:59 AM EDT 9:01 PM EDT
Nautical Twilight 4:17 AM EDT 9:43 PM EDT
Astronomical Twilight 3:29 AM EDT 10:31 PM EDT
Moon 7:34 AM EDT (6/5) 10:53 PM EDT (6/5)
Length of Visible Light 16h 02m
Length of Day
14h 57m
Waxing Crescent, 6% of the Moon is Illuminated
Jun 5
Waxing Crescent
Jun 10
First Quarter
Jun 17
Full
Jun 25
Last Quarter
Jul 2
New

Hourly Weather History & Observations

Time (EDT) Temp. Heat Index Dew Point Humidity Pressure Visibility Wind Dir Wind Speed Gust Speed Precip Events Conditions
12:15 AM 64.4 °F - 48.2 °F 56% 30.01 in 10.0 mi SW 4.6 mph - N/A   Scattered Clouds
12:35 AM 64.4 °F - 48.2 °F 56% 30.00 in 10.0 mi SW 6.9 mph - N/A   Scattered Clouds
12:55 AM 64.4 °F - 48.2 °F 56% 30.00 in 10.0 mi SW 8.1 mph - N/A   Scattered Clouds
1:15 AM 64.4 °F - 50.0 °F 59% 30.00 in 10.0 mi SSW 9.2 mph - N/A   Scattered Clouds
1:35 AM 64.4 °F - 48.2 °F 56% 30.00 in 10.0 mi SW 9.2 mph - N/A   Clear
1:55 AM 64.4 °F - 50.0 °F 59% 29.99 in 10.0 mi SSW 5.8 mph - N/A   Clear
2:15 AM 64.4 °F - 50.0 °F 59% 29.99 in 10.0 mi SSW 6.9 mph - N/A   Mostly Cloudy
2:35 AM 64.4 °F - 50.0 °F 59% 29.99 in 10.0 mi South 4.6 mph - N/A   Overcast
2:55 AM 62.6 °F - 50.0 °F 63% 29.99 in 10.0 mi SSW 4.6 mph - N/A   Scattered Clouds
3:15 AM 62.6 °F - 51.8 °F 68% 29.98 in 10.0 mi South 5.8 mph - N/A   Mostly Cloudy
3:35 AM 62.6 °F - 51.8 °F 68% 29.97 in 10.0 mi SSW 8.1 mph - N/A   Overcast
3:55 AM 62.6 °F - 51.8 °F 68% 29.96 in 10.0 mi South 8.1 mph - N/A   Scattered Clouds
4:15 AM 62.6 °F - 53.6 °F 72% 29.97 in 10.0 mi SSW 5.8 mph - N/A Rain Light Rain
4:35 AM 62.6 °F - 53.6 °F 72% 29.96 in 10.0 mi SSW 6.9 mph - N/A   Mostly Cloudy
4:55 AM 62.6 °F - 53.6 °F 72% 29.96 in 10.0 mi Calm Calm - N/A   Scattered Clouds
5:15 AM 62.6 °F - 53.6 °F 72% 29.96 in 10.0 mi South 4.6 mph - N/A   Scattered Clouds
5:35 AM 62.6 °F - 51.8 °F 68% 29.95 in 10.0 mi SW 4.6 mph - N/A   Scattered Clouds
5:55 AM 62.6 °F - 51.8 °F 68% 29.95 in 10.0 mi Calm Calm - N/A   Scattered Clouds
6:15 AM 62.6 °F - 53.6 °F 72% 29.96 in 10.0 mi Calm Calm - N/A   Clear
6:35 AM 62.6 °F - 53.6 °F 72% 29.96 in 10.0 mi Calm Calm - N/A   Clear
6:55 AM 62.6 °F - 55.4 °F 77% 29.96 in 10.0 mi Calm Calm - N/A   Scattered Clouds
7:15 AM 64.4 °F - 55.4 °F 73% 29.96 in 10.0 mi Calm Calm - N/A   Clear
7:35 AM 64.4 °F - 55.4 °F 73% 29.96 in 10.0 mi Calm Calm - N/A   Clear
7:55 AM 64.4 °F - 55.4 °F 73% 29.96 in 10.0 mi Calm Calm - N/A   Clear
8:15 AM 66.2 °F - 53.6 °F 64% 29.95 in 10.0 mi Calm Calm - N/A   Clear
8:35 AM 66.2 °F - 53.6 °F 64% 29.95 in 10.0 mi Calm Calm - N/A   Clear
8:55 AM 68.0 °F - 55.4 °F 64% 29.94 in 10.0 mi SW 3.5 mph - N/A   Clear
9:15 AM 68.0 °F - 53.6 °F 60% 29.94 in 10.0 mi WSW 3.5 mph - N/A   Clear
9:35 AM 68.0 °F - 53.6 °F 60% 29.94 in 10.0 mi SSW 6.9 mph - N/A   Clear
9:55 AM 69.8 °F - 53.6 °F 56% 29.93 in 10.0 mi SSW 5.8 mph - N/A   Clear
10:15 AM 71.6 °F - 53.6 °F 53% 29.92 in 10.0 mi SSW 5.8 mph - N/A   Clear
10:35 AM 71.6 °F - 55.4 °F 57% 29.92 in 10.0 mi South 3.5 mph - N/A   Clear
10:55 AM 73.4 °F - 55.4 °F 53% 29.91 in 10.0 mi South 3.5 mph - N/A   Clear
11:15 AM 73.4 °F - 59.0 °F 61% 29.90 in 10.0 mi Calm Calm - N/A   Clear
11:35 AM 75.2 °F - 57.2 °F 53% 29.90 in 10.0 mi SSE 3.5 mph - N/A   Clear
11:55 AM 75.2 °F - 57.2 °F 53% 29.90 in 10.0 mi Calm Calm - N/A   Clear
12:15 PM 77.0 °F - 59.0 °F 54% 29.89 in 10.0 mi Calm Calm - N/A   Clear
12:35 PM 78.8 °F - 59.0 °F 51% 29.89 in 10.0 mi South 6.9 mph - N/A   Scattered Clouds
12:55 PM 78.8 °F - 59.0 °F 51% 29.87 in 10.0 mi SE 3.5 mph - N/A   Scattered Clouds
1:15 PM 80.6 °F 81.5 °F 60.8 °F 51% 29.86 in 10.0 mi South 6.9 mph - N/A   Scattered Clouds
1:35 PM 80.6 °F 81.1 °F 59.0 °F 48% 29.85 in 10.0 mi SSE 8.1 mph - N/A   Scattered Clouds
1:55 PM 80.6 °F 81.1 °F 59.0 °F 48% 29.84 in 10.0 mi South 9.2 mph 16.1 mph N/A   Clear
2:15 PM 82.4 °F 82.9 °F 60.8 °F 48% 29.84 in 10.0 mi SSE 9.2 mph - N/A   Clear
2:35 PM 82.4 °F 82.9 °F 60.8 °F 48% 29.83 in 10.0 mi SSW 12.7 mph 18.4 mph N/A   Scattered Clouds
2:55 PM 82.4 °F 82.9 °F 60.8 °F 48% 29.83 in 10.0 mi SW 13.8 mph 18.4 mph N/A   Scattered Clouds
3:15 PM 82.4 °F 82.9 °F 60.8 °F 48% 29.81 in 10.0 mi SSW 12.7 mph - N/A   Scattered Clouds
3:35 PM 80.6 °F 81.5 °F 60.8 °F 51% 29.81 in 10.0 mi SW 16.1 mph 20.7 mph N/A   Scattered Clouds
3:55 PM 82.4 °F 82.9 °F 60.8 °F 48% 29.80 in 10.0 mi SW 17.3 mph - N/A   Clear
4:15 PM 82.4 °F 82.9 °F 60.8 °F 48% 29.79 in 10.0 mi SSW 11.5 mph 17.3 mph N/A   Clear
4:35 PM 80.6 °F 81.5 °F 60.8 °F 51% 29.79 in 10.0 mi SW 13.8 mph 18.4 mph N/A   Scattered Clouds
4:55 PM 80.6 °F 81.8 °F 62.6 °F 54% 29.78 in 10.0 mi SSW 8.1 mph 17.3 mph N/A   Scattered Clouds
5:15 PM 78.8 °F - 62.6 °F 57% 29.78 in 10.0 mi South 12.7 mph 19.6 mph N/A   Scattered Clouds
5:35 PM 78.8 °F - 62.6 °F 57% 29.78 in 10.0 mi SSW 10.4 mph - N/A   Scattered Clouds
5:55 PM 78.8 °F - 62.6 °F 57% 29.77 in 10.0 mi SW 8.1 mph - N/A   Scattered Clouds
6:15 PM 78.8 °F - 62.6 °F 57% 29.76 in 10.0 mi SSW 11.5 mph - N/A   Scattered Clouds
6:35 PM 78.8 °F - 62.6 °F 57% 29.76 in 10.0 mi SSW 10.4 mph - N/A   Clear
6:55 PM 78.8 °F - 62.6 °F 57% 29.75 in 10.0 mi SSW 12.7 mph - N/A   Clear
7:15 PM 78.8 °F - 64.4 °F 61% 29.76 in 10.0 mi SSW 12.7 mph 17.3 mph N/A   Clear
7:35 PM 77.0 °F - 64.4 °F 65% 29.76 in 10.0 mi SW 9.2 mph - N/A   Clear
7:55 PM 77.0 °F - 64.4 °F 65% 29.75 in 10.0 mi SSW 8.1 mph - N/A   Clear
8:15 PM 77.0 °F - 64.4 °F 65% 29.75 in 10.0 mi SSW 5.8 mph - N/A   Clear
8:35 PM 77.0 °F - 64.4 °F 65% 29.76 in 10.0 mi SSW 4.6 mph - N/A   Clear
8:55 PM 75.2 °F - 66.2 °F 73% 29.76 in 10.0 mi SSW 4.6 mph - N/A   Clear
9:15 PM 75.2 °F - 68.0 °F 78% 29.76 in 10.0 mi SSW 5.8 mph - N/A   Clear
9:35 PM 75.2 °F - 68.0 °F 78% 29.77 in 10.0 mi SSW 5.8 mph - N/A   Clear
9:55 PM 73.4 °F - 68.0 °F 83% 29.77 in 10.0 mi SSW 4.6 mph - N/A   Clear
10:15 PM 73.4 °F - 68.0 °F 83% 29.76 in 10.0 mi SSW 5.8 mph - N/A   Scattered Clouds
10:35 PM 73.4 °F - 68.0 °F 83% 29.76 in 10.0 mi SSW 6.9 mph - N/A   Scattered Clouds
10:55 PM 73.4 °F - 66.2 °F 78% 29.76 in 10.0 mi SW 5.8 mph - N/A   Scattered Clouds
11:15 PM 73.4 °F - 66.2 °F 78% 29.76 in 10.0 mi SW 6.9 mph - N/A   Scattered Clouds
11:35 PM 73.4 °F - 66.2 °F 78% 29.76 in 10.0 mi SW 8.1 mph - N/A   Mostly Cloudy
11:55 PM 73.4 °F - 66.2 °F 78% 29.76 in 10.0 mi SW 8.1 mph - N/A   Overcast